STARLINK-3337

decayed
NORAD ID: 50826 Int'l Des: 2022-001 Owner: SPXS Country: US Constellation: starlink
LEOCIRCULAR
グループ

STARLINK-3337について

説明を読み込み中...

高度履歴

Altitude vs Time

uPlot chart will show altitude changes over time

軌道要素

1 50826U 22001Z 24248.96516113 .13231720 12078-4 32227-2 0 9997
2 50826 53.1869 78.9899 0014629 281.8156 232.6098 16.28254520149142
Epoch: Sep 4, 2024 • Age: 9099 hours

現在のステータス

Position data unavailable
打ち上げ日 Jan 6, 2022
運用期間 3.6 years
落下予定日 Sep 5, 2024
タイプ internet

技術仕様

分類 Payload
質量 297.00 kg
乾燥質量 275.00 kg
総質量 297.00 kg
長さ 0.20 m
直径 2.80 m
スパン 9.00 m
形状 Box + pan
製造者 SPXS
バスタイプ Starlink
フェーズステータス Unknown Transfer Status
所有者/国 SPXS/US

大規模コンステレーション

Loading constellations...